Year,Month,Day,Hour,Minute,Value (Times are PST for temperature in C)
2013,08,02,00,00,15.80
2013,08,02,00,01,15.80
2013,08,02,00,02,15.80
2013,08,02,00,03,15.80
2013,08,02,00,04,15.80
2013,08,02,00,05,15.80
2013,08,02,00,06,15.70
2013,08,02,00,07,15.70
2013,08,02,00,08,15.70
2013,08,02,00,09,15.70
2013,08,02,00,10,15.70
2013,08,02,00,11,15.70
2013,08,02,00,12,15.70
2013,08,02,00,13,15.70
2013,08,02,00,14,15.70
2013,08,02,00,15,15.70
2013,08,02,00,16,15.70
2013,08,02,00,17,15.70
2013,08,02,00,18,15.70
2013,08,02,00,19,15.70
2013,08,02,00,20,15.70
2013,08,02,00,21,15.70
2013,08,02,00,22,15.70
2013,08,02,00,23,15.60
2013,08,02,00,24,15.60
2013,08,02,00,25,15.60
2013,08,02,00,26,15.60
2013,08,02,00,27,15.50
2013,08,02,00,28,15.50
2013,08,02,00,29,15.50
2013,08,02,00,30,15.50
2013,08,02,00,31,15.50
2013,08,02,00,32,15.40
2013,08,02,00,33,15.40
2013,08,02,00,34,15.40
2013,08,02,00,35,15.40
2013,08,02,00,36,15.40
2013,08,02,00,37,15.40
2013,08,02,00,38,15.40
2013,08,02,00,39,15.40
2013,08,02,00,40,15.30
2013,08,02,00,41,15.30
2013,08,02,00,42,15.30
2013,08,02,00,43,15.30
2013,08,02,00,44,15.30
2013,08,02,00,45,15.30
2013,08,02,00,46,15.30
2013,08,02,00,47,15.30
2013,08,02,00,48,15.30
2013,08,02,00,49,15.30
2013,08,02,00,50,15.30
2013,08,02,00,51,15.30
2013,08,02,00,52,15.20
2013,08,02,00,53,15.20
2013,08,02,00,54,15.20
2013,08,02,00,55,15.20
2013,08,02,00,56,15.20
2013,08,02,00,57,15.20
2013,08,02,00,58,15.20
2013,08,02,00,59,15.20
2013,08,02,01,00,15.20
2013,08,02,01,01,15.20
2013,08,02,01,02,15.20
2013,08,02,01,03,15.20
2013,08,02,01,04,15.20
2013,08,02,01,05,15.10
2013,08,02,01,06,15.10
2013,08,02,01,07,15.10
2013,08,02,01,08,15.10
2013,08,02,01,09,15.10
2013,08,02,01,10,15.00
2013,08,02,01,11,15.00
2013,08,02,01,12,15.00
2013,08,02,01,13,15.00
2013,08,02,01,14,15.00
2013,08,02,01,15,15.00
2013,08,02,01,16,15.00
2013,08,02,01,17,15.00
2013,08,02,01,18,15.00
2013,08,02,01,19,15.00
2013,08,02,01,20,15.00
2013,08,02,01,21,15.10
2013,08,02,01,22,15.10
2013,08,02,01,23,15.20
2013,08,02,01,24,15.20
2013,08,02,01,25,15.20
2013,08,02,01,26,15.20
2013,08,02,01,27,15.20
2013,08,02,01,28,15.20
2013,08,02,01,29,15.20
2013,08,02,01,30,15.10
2013,08,02,01,31,15.10
2013,08,02,01,32,15.10
2013,08,02,01,33,15.10
2013,08,02,01,34,15.10
2013,08,02,01,35,15.00
2013,08,02,01,36,15.00
2013,08,02,01,37,15.00
2013,08,02,01,38,15.00
2013,08,02,01,39,15.10
2013,08,02,01,40,15.10
2013,08,02,01,41,15.10
2013,08,02,01,42,15.10
2013,08,02,01,43,15.10
2013,08,02,01,44,15.10
2013,08,02,01,45,15.00
2013,08,02,01,46,15.00
2013,08,02,01,47,15.00
2013,08,02,01,48,15.00
2013,08,02,01,49,15.00
2013,08,02,01,50,15.00
2013,08,02,01,51,15.00
2013,08,02,01,52,15.00
2013,08,02,01,53,15.00
2013,08,02,01,54,15.00
2013,08,02,01,55,15.00
2013,08,02,01,56,15.00
2013,08,02,01,57,15.00
2013,08,02,01,58,15.00
2013,08,02,01,59,15.00
2013,08,02,02,00,15.00
2013,08,02,02,01,15.00
2013,08,02,02,02,14.90
2013,08,02,02,03,14.90
2013,08,02,02,04,15.00
2013,08,02,02,05,15.00
2013,08,02,02,06,15.00
2013,08,02,02,07,15.00
2013,08,02,02,08,15.00
2013,08,02,02,09,15.00
2013,08,02,02,10,15.00
2013,08,02,02,11,15.00
2013,08,02,02,12,15.00
2013,08,02,02,13,15.00
2013,08,02,02,14,15.00
2013,08,02,02,15,15.00
2013,08,02,02,16,15.00
2013,08,02,02,17,15.00
2013,08,02,02,18,15.00
2013,08,02,02,19,15.00
2013,08,02,02,20,15.00
2013,08,02,02,21,15.00
2013,08,02,02,22,15.00
2013,08,02,02,23,15.00
2013,08,02,02,24,15.00
2013,08,02,02,25,15.00
2013,08,02,02,26,15.00
2013,08,02,02,27,15.00
2013,08,02,02,28,15.00
2013,08,02,02,29,15.00
2013,08,02,02,30,15.00
2013,08,02,02,31,15.00
2013,08,02,02,32,15.00
2013,08,02,02,33,15.00
2013,08,02,02,34,15.00
2013,08,02,02,35,15.00
2013,08,02,02,36,15.00
2013,08,02,02,37,15.00
2013,08,02,02,38,15.00
2013,08,02,02,39,15.00
2013,08,02,02,40,15.00
2013,08,02,02,41,15.00
2013,08,02,02,42,15.00
2013,08,02,02,43,15.00
2013,08,02,02,44,15.00
2013,08,02,02,45,15.00
2013,08,02,02,46,15.00
2013,08,02,02,47,15.00
2013,08,02,02,48,15.00
2013,08,02,02,49,15.00
2013,08,02,02,50,15.00
2013,08,02,02,51,15.00
2013,08,02,02,52,15.00
2013,08,02,02,53,15.00
2013,08,02,02,54,15.00
2013,08,02,02,55,15.00
2013,08,02,02,56,15.00
2013,08,02,02,57,15.00
2013,08,02,02,58,15.00
2013,08,02,02,59,15.00
2013,08,02,03,00,15.00
2013,08,02,03,01,15.00
2013,08,02,03,02,15.00
2013,08,02,03,03,15.00
2013,08,02,03,04,15.00
2013,08,02,03,05,15.00
2013,08,02,03,06,15.00
2013,08,02,03,07,15.00
2013,08,02,03,08,15.00
2013,08,02,03,09,15.00
2013,08,02,03,10,15.00
2013,08,02,03,11,15.00
2013,08,02,03,12,15.00
2013,08,02,03,13,15.00
2013,08,02,03,14,15.00
2013,08,02,03,15,15.00
2013,08,02,03,16,15.00
2013,08,02,03,17,15.00
2013,08,02,03,18,15.00
2013,08,02,03,19,15.00
2013,08,02,03,20,15.00
2013,08,02,03,21,15.00
2013,08,02,03,22,15.00
2013,08,02,03,23,15.00
2013,08,02,03,24,15.00
2013,08,02,03,25,15.00
2013,08,02,03,26,15.00
2013,08,02,03,27,15.10
2013,08,02,03,28,15.10
2013,08,02,03,29,15.10
2013,08,02,03,30,15.10
2013,08,02,03,31,15.10
2013,08,02,03,32,15.10
2013,08,02,03,33,15.20
2013,08,02,03,34,15.20
2013,08,02,03,35,15.20
2013,08,02,03,36,15.20
2013,08,02,03,37,15.20
2013,08,02,03,38,15.20
2013,08,02,03,39,15.20
2013,08,02,03,40,15.20
2013,08,02,03,41,15.20
2013,08,02,03,42,15.20
2013,08,02,03,43,15.10
2013,08,02,03,44,15.10
2013,08,02,03,45,15.10
2013,08,02,03,46,15.00
2013,08,02,03,47,15.00
2013,08,02,03,48,15.00
2013,08,02,03,49,15.00
2013,08,02,03,50,15.00
2013,08,02,03,51,15.00
2013,08,02,03,52,15.00
2013,08,02,03,53,15.00
2013,08,02,03,54,15.00
2013,08,02,03,55,14.90
2013,08,02,03,56,14.90
2013,08,02,03,57,14.80
2013,08,02,03,58,14.80
2013,08,02,03,59,14.80
2013,08,02,04,00,14.70
2013,08,02,04,01,14.70
2013,08,02,04,02,14.70
2013,08,02,04,03,14.70
2013,08,02,04,04,14.70
2013,08,02,04,05,14.60
2013,08,02,04,06,14.60
2013,08,02,04,07,14.60
2013,08,02,04,08,14.60
2013,08,02,04,09,14.60
2013,08,02,04,10,14.60
2013,08,02,04,11,14.60
2013,08,02,04,12,14.60
2013,08,02,04,13,14.50
2013,08,02,04,14,14.50
2013,08,02,04,15,14.50
2013,08,02,04,16,14.40
2013,08,02,04,17,14.40
2013,08,02,04,18,14.40
2013,08,02,04,19,14.40
2013,08,02,04,20,14.40
2013,08,02,04,21,14.30
2013,08,02,04,22,14.30
2013,08,02,04,23,14.30
2013,08,02,04,24,14.30
2013,08,02,04,25,14.20
2013,08,02,04,26,14.20
2013,08,02,04,27,14.20
2013,08,02,04,28,14.20
2013,08,02,04,29,14.20
2013,08,02,04,30,14.20
2013,08,02,04,31,14.20
2013,08,02,04,32,14.20
2013,08,02,04,33,14.20
2013,08,02,04,34,14.20
2013,08,02,04,35,14.20
2013,08,02,04,36,14.20
2013,08,02,04,37,14.20
2013,08,02,04,38,14.20
2013,08,02,04,39,14.20
2013,08,02,04,40,14.20
2013,08,02,04,41,14.20
2013,08,02,04,42,14.20
2013,08,02,04,43,14.10
2013,08,02,04,44,14.10
2013,08,02,04,45,14.10
2013,08,02,04,46,14.10
2013,08,02,04,47,14.10
2013,08,02,04,48,14.10
2013,08,02,04,49,14.20
2013,08,02,04,50,14.20
2013,08,02,04,51,14.20
2013,08,02,04,52,14.20
2013,08,02,04,53,14.20
2013,08,02,04,54,14.20
2013,08,02,04,55,14.20
2013,08,02,04,56,14.20
2013,08,02,04,57,14.20
2013,08,02,04,58,14.20
2013,08,02,04,59,14.20
2013,08,02,05,00,14.20
2013,08,02,05,01,14.20
2013,08,02,05,02,14.20
2013,08,02,05,03,14.20
2013,08,02,05,04,14.20
2013,08,02,05,05,14.20
2013,08,02,05,06,14.20
2013,08,02,05,07,14.20
2013,08,02,05,08,14.20
2013,08,02,05,09,14.20
2013,08,02,05,10,14.20
2013,08,02,05,11,14.20
2013,08,02,05,12,14.20
2013,08,02,05,13,14.20
2013,08,02,05,14,14.20
2013,08,02,05,15,14.20
2013,08,02,05,16,14.20
2013,08,02,05,17,14.20
2013,08,02,05,18,14.20
2013,08,02,05,19,14.20
2013,08,02,05,20,14.20
2013,08,02,05,21,14.20
2013,08,02,05,22,14.20
2013,08,02,05,23,14.20
2013,08,02,05,24,14.20
2013,08,02,05,25,14.20
2013,08,02,05,26,14.20
2013,08,02,05,27,14.20
2013,08,02,05,28,14.20
2013,08,02,05,29,14.20
2013,08,02,05,30,14.10
2013,08,02,05,31,14.10
2013,08,02,05,32,14.10
2013,08,02,05,33,14.10
2013,08,02,05,34,14.10
2013,08,02,05,35,14.10
2013,08,02,05,36,14.20
2013,08,02,05,37,14.10
2013,08,02,05,38,14.10
2013,08,02,05,39,14.10
2013,08,02,05,40,14.10
2013,08,02,05,41,14.20
2013,08,02,05,42,14.20
2013,08,02,05,43,14.20
2013,08,02,05,44,14.20
2013,08,02,05,45,14.20
2013,08,02,05,46,14.20
2013,08,02,05,47,14.20
2013,08,02,05,48,14.30
2013,08,02,05,49,14.30
2013,08,02,05,50,14.30
2013,08,02,05,51,14.30
2013,08,02,05,52,14.30
2013,08,02,05,53,14.30
2013,08,02,05,54,14.30
2013,08,02,05,55,14.30
2013,08,02,05,56,14.30
2013,08,02,05,57,14.30
2013,08,02,05,58,14.30
2013,08,02,05,59,14.40
2013,08,02,06,00,14.40
2013,08,02,06,01,14.40
2013,08,02,06,02,14.40
2013,08,02,06,03,14.40
2013,08,02,06,04,14.40
2013,08,02,06,05,14.40
2013,08,02,06,06,14.40
2013,08,02,06,07,14.40
2013,08,02,06,08,14.40
2013,08,02,06,09,14.40
2013,08,02,06,10,14.40
2013,08,02,06,11,14.40
2013,08,02,06,12,14.40
2013,08,02,06,13,14.40
2013,08,02,06,14,14.40
2013,08,02,06,15,14.40
2013,08,02,06,16,14.40
2013,08,02,06,17,14.40
2013,08,02,06,18,14.40
2013,08,02,06,19,14.40
2013,08,02,06,20,14.40
2013,08,02,06,21,14.40
2013,08,02,06,22,14.40
2013,08,02,06,23,14.40
2013,08,02,06,24,14.40
2013,08,02,06,25,14.30
2013,08,02,06,26,14.30
2013,08,02,06,27,14.30
2013,08,02,06,28,14.30
2013,08,02,06,29,14.20
2013,08,02,06,30,14.20
2013,08,02,06,31,14.20
2013,08,02,06,32,14.20
2013,08,02,06,33,14.20
2013,08,02,06,34,14.10
2013,08,02,06,35,14.10
2013,08,02,06,36,14.10
2013,08,02,06,37,14.00
2013,08,02,06,38,14.00
2013,08,02,06,39,14.00
2013,08,02,06,40,13.90
2013,08,02,06,41,13.90
2013,08,02,06,42,13.90
2013,08,02,06,43,13.90
2013,08,02,06,44,13.90
2013,08,02,06,45,13.90
2013,08,02,06,46,13.90
2013,08,02,06,47,13.90
2013,08,02,06,48,13.90
2013,08,02,06,49,13.90
2013,08,02,06,50,13.90
2013,08,02,06,51,13.90
2013,08,02,06,52,13.90
2013,08,02,06,53,13.90
2013,08,02,06,54,13.90
2013,08,02,06,55,13.90
2013,08,02,06,56,13.90
2013,08,02,06,57,13.90
2013,08,02,06,58,13.90
2013,08,02,06,59,13.90
2013,08,02,07,00,13.90
2013,08,02,07,01,13.90
2013,08,02,07,02,13.90
2013,08,02,07,03,14.00
2013,08,02,07,04,14.00
2013,08,02,07,05,14.00
2013,08,02,07,06,14.00
2013,08,02,07,07,14.10
2013,08,02,07,08,14.10
2013,08,02,07,09,14.10
2013,08,02,07,10,14.10
2013,08,02,07,11,14.10
2013,08,02,07,12,14.10
2013,08,02,07,13,14.10
2013,08,02,07,14,14.10
2013,08,02,07,15,14.10
2013,08,02,07,16,14.20
2013,08,02,07,17,14.20
2013,08,02,07,18,14.20
2013,08,02,07,19,14.20
2013,08,02,07,20,14.20
2013,08,02,07,21,14.20
2013,08,02,07,22,14.20
2013,08,02,07,23,14.20
2013,08,02,07,24,14.20
2013,08,02,07,25,14.30
2013,08,02,07,26,14.30
2013,08,02,07,27,14.30
2013,08,02,07,28,14.30
2013,08,02,07,29,14.30
2013,08,02,07,30,14.30
2013,08,02,07,31,14.40
2013,08,02,07,32,14.40
2013,08,02,07,33,14.40
2013,08,02,07,34,14.40
2013,08,02,07,35,14.40
2013,08,02,07,36,14.50
2013,08,02,07,37,14.50
2013,08,02,07,38,14.60
2013,08,02,07,39,14.60
2013,08,02,07,40,14.60
2013,08,02,07,41,14.60
2013,08,02,07,42,14.60
2013,08,02,07,43,14.60
2013,08,02,07,44,14.60
2013,08,02,07,45,14.60
2013,08,02,07,46,14.60
2013,08,02,07,47,14.70
2013,08,02,07,48,14.70
2013,08,02,07,49,14.70
2013,08,02,07,50,14.70
2013,08,02,07,51,14.70
2013,08,02,07,52,14.80
2013,08,02,07,53,14.80
2013,08,02,07,54,14.80
2013,08,02,07,55,14.80
2013,08,02,07,56,14.80
2013,08,02,07,57,14.80
2013,08,02,07,58,14.80
2013,08,02,07,59,14.80
2013,08,02,08,00,14.80
2013,08,02,08,01,14.80
2013,08,02,08,02,14.80
2013,08,02,08,03,14.80
2013,08,02,08,04,14.80
2013,08,02,08,05,14.80
2013,08,02,08,06,14.80
2013,08,02,08,07,14.80
2013,08,02,08,08,14.80
2013,08,02,08,09,14.80
2013,08,02,08,10,14.80
2013,08,02,08,11,14.70
2013,08,02,08,12,14.70
2013,08,02,08,13,14.80
2013,08,02,08,14,14.80
2013,08,02,08,15,14.80
2013,08,02,08,16,14.80
2013,08,02,08,17,14.80
2013,08,02,08,18,14.80
2013,08,02,08,19,14.80
2013,08,02,08,20,14.80
2013,08,02,08,21,14.80
2013,08,02,08,22,14.80
2013,08,02,08,23,14.80
2013,08,02,08,24,14.80
2013,08,02,08,25,14.80
2013,08,02,08,26,14.80
2013,08,02,08,27,14.80
2013,08,02,08,28,14.80
2013,08,02,08,29,14.80
2013,08,02,08,30,14.80
2013,08,02,08,31,14.80
2013,08,02,08,32,14.80
2013,08,02,08,33,14.80
2013,08,02,08,34,14.80
2013,08,02,08,35,14.80
2013,08,02,08,36,14.80
2013,08,02,08,37,14.80
2013,08,02,08,38,14.80
2013,08,02,08,39,14.80
2013,08,02,08,40,14.80
2013,08,02,08,41,14.90
2013,08,02,08,42,14.90
2013,08,02,08,43,15.00
2013,08,02,08,44,15.00
2013,08,02,08,45,15.00
2013,08,02,08,46,15.00
2013,08,02,08,47,15.00
2013,08,02,08,48,15.00
2013,08,02,08,49,14.90
2013,08,02,08,50,14.90
2013,08,02,08,51,14.90
2013,08,02,08,52,14.90
2013,08,02,08,53,14.90
2013,08,02,08,54,14.90
2013,08,02,08,55,14.80
2013,08,02,08,56,14.80
2013,08,02,08,57,14.80
2013,08,02,08,58,14.80
2013,08,02,08,59,14.80
2013,08,02,09,00,14.80
2013,08,02,09,01,14.80
2013,08,02,09,02,14.80
2013,08,02,09,03,14.80
2013,08,02,09,04,14.80
2013,08,02,09,05,14.80
2013,08,02,09,06,14.80
2013,08,02,09,07,14.80
2013,08,02,09,08,14.80
2013,08,02,09,09,14.80
2013,08,02,09,10,14.80
2013,08,02,09,11,14.80
2013,08,02,09,12,14.80
2013,08,02,09,13,14.80
2013,08,02,09,14,14.80
2013,08,02,09,15,14.80
2013,08,02,09,16,14.80
2013,08,02,09,17,14.80
2013,08,02,09,18,14.80
2013,08,02,09,19,14.80
2013,08,02,09,20,14.80
2013,08,02,09,21,14.80
2013,08,02,09,22,14.80
2013,08,02,09,23,14.90
2013,08,02,09,24,14.90
2013,08,02,09,25,14.90
2013,08,02,09,26,14.90
2013,08,02,09,27,14.90
2013,08,02,09,28,15.00
2013,08,02,09,29,15.00
2013,08,02,09,30,15.00
2013,08,02,09,31,15.00
2013,08,02,09,32,15.00
2013,08,02,09,33,15.00
2013,08,02,09,34,15.00
2013,08,02,09,35,15.00
2013,08,02,09,36,15.00
2013,08,02,09,37,15.00
2013,08,02,09,38,15.00
2013,08,02,09,39,15.00
2013,08,02,09,40,15.00
2013,08,02,09,41,15.00
2013,08,02,09,42,15.00
2013,08,02,09,43,15.00
2013,08,02,09,44,15.00
2013,08,02,09,45,15.00
2013,08,02,09,46,15.00
2013,08,02,09,47,15.00
2013,08,02,09,48,15.00
2013,08,02,09,49,15.00
2013,08,02,09,50,15.10
2013,08,02,09,51,15.10
2013,08,02,09,52,15.10
2013,08,02,09,53,15.10
2013,08,02,09,54,15.10
2013,08,02,09,55,15.10
2013,08,02,09,56,15.10
2013,08,02,09,57,15.10
2013,08,02,09,58,15.10
2013,08,02,09,59,15.20
2013,08,02,10,00,15.20
2013,08,02,10,01,15.20
2013,08,02,10,02,15.20
2013,08,02,10,03,15.20
2013,08,02,10,04,15.20
2013,08,02,10,05,15.20
2013,08,02,10,06,15.20
2013,08,02,10,07,15.20
2013,08,02,10,08,15.20
2013,08,02,10,09,15.20
2013,08,02,10,10,15.20
2013,08,02,10,11,15.20
2013,08,02,10,12,15.20
2013,08,02,10,13,15.20
2013,08,02,10,14,15.20
2013,08,02,10,15,15.20
2013,08,02,10,16,15.20
2013,08,02,10,17,15.20
2013,08,02,10,18,15.20
2013,08,02,10,19,15.20
2013,08,02,10,20,15.20
2013,08,02,10,21,15.20
2013,08,02,10,22,15.20
2013,08,02,10,23,15.20
2013,08,02,10,24,15.10
2013,08,02,10,25,15.10
2013,08,02,10,26,15.20
2013,08,02,10,27,15.20
2013,08,02,10,28,15.20
2013,08,02,10,29,15.20
2013,08,02,10,30,15.20
2013,08,02,10,31,15.20
2013,08,02,10,32,15.20
2013,08,02,10,33,15.20
2013,08,02,10,34,15.20
2013,08,02,10,35,15.20
2013,08,02,10,36,15.20
2013,08,02,10,37,15.20
2013,08,02,10,38,15.20
2013,08,02,10,39,15.20
2013,08,02,10,40,15.20
2013,08,02,10,41,15.20
2013,08,02,10,42,15.20
2013,08,02,10,43,15.20
2013,08,02,10,44,15.20
2013,08,02,10,45,15.20
2013,08,02,10,46,15.20
2013,08,02,10,47,15.20
2013,08,02,10,48,15.20
2013,08,02,10,49,15.20
2013,08,02,10,50,15.20
2013,08,02,10,51,15.10
2013,08,02,10,52,15.10
2013,08,02,10,53,15.00
2013,08,02,10,54,15.00
2013,08,02,10,55,15.00
2013,08,02,10,56,15.00
2013,08,02,10,57,15.00
2013,08,02,10,58,15.00
2013,08,02,10,59,15.00
2013,08,02,11,00,15.00
2013,08,02,11,01,15.00
2013,08,02,11,02,15.00
2013,08,02,11,03,15.00
2013,08,02,11,04,15.00
2013,08,02,11,05,15.00
2013,08,02,11,06,15.00
2013,08,02,11,07,15.00
2013,08,02,11,08,15.00
2013,08,02,11,09,15.00
2013,08,02,11,10,15.00
2013,08,02,11,11,15.00
2013,08,02,11,12,15.00
2013,08,02,11,13,15.00
2013,08,02,11,14,15.00
2013,08,02,11,15,15.00
2013,08,02,11,16,15.00
2013,08,02,11,17,15.00
2013,08,02,11,18,15.00
2013,08,02,11,19,15.00
2013,08,02,11,20,15.00
2013,08,02,11,21,15.00
2013,08,02,11,22,15.00
2013,08,02,11,23,15.00
2013,08,02,11,24,15.00
2013,08,02,11,25,15.00
2013,08,02,11,26,15.00
2013,08,02,11,27,15.00
2013,08,02,11,28,15.00
2013,08,02,11,29,15.00
2013,08,02,11,30,15.00
2013,08,02,11,31,15.00
2013,08,02,11,32,15.00
2013,08,02,11,33,15.00
2013,08,02,11,34,15.00
2013,08,02,11,35,15.00
2013,08,02,11,36,15.00
2013,08,02,11,37,15.00
2013,08,02,11,38,15.00
2013,08,02,11,39,15.00
2013,08,02,11,40,15.00
2013,08,02,11,41,15.00
2013,08,02,11,42,15.00
2013,08,02,11,43,15.00
2013,08,02,11,44,15.00
2013,08,02,11,45,15.00
2013,08,02,11,46,15.00
2013,08,02,11,47,15.00
2013,08,02,11,48,15.00
2013,08,02,11,49,15.00
2013,08,02,11,50,15.00
2013,08,02,11,51,15.00
2013,08,02,11,52,15.00
2013,08,02,11,53,15.00
2013,08,02,11,54,15.00
2013,08,02,11,55,15.00
2013,08,02,11,56,15.00
2013,08,02,11,57,15.00
2013,08,02,11,58,15.00
2013,08,02,11,59,15.00
2013,08,02,12,00,15.10
2013,08,02,12,01,15.10
2013,08,02,12,02,15.10
2013,08,02,12,03,15.20
2013,08,02,12,04,15.20
2013,08,02,12,05,15.30
2013,08,02,12,06,15.30
2013,08,02,12,07,15.30
2013,08,02,12,08,15.30
2013,08,02,12,09,15.30
2013,08,02,12,10,15.30
2013,08,02,12,11,15.30
2013,08,02,12,12,15.30
2013,08,02,12,13,15.30
2013,08,02,12,14,15.30
2013,08,02,12,15,15.40
2013,08,02,12,16,15.40
2013,08,02,12,17,15.40
2013,08,02,12,18,15.40
2013,08,02,12,19,15.40
2013,08,02,12,20,15.50
2013,08,02,12,21,15.50
2013,08,02,12,22,15.50
2013,08,02,12,23,15.60
2013,08,02,12,24,15.60
2013,08,02,12,25,15.60
2013,08,02,12,26,15.60
2013,08,02,12,27,15.60
2013,08,02,12,28,15.60
2013,08,02,12,29,15.60
2013,08,02,12,30,15.60
2013,08,02,12,31,15.60
2013,08,02,12,32,15.70
2013,08,02,12,33,15.70
2013,08,02,12,34,15.70
2013,08,02,12,35,15.70
2013,08,02,12,36,15.70
2013,08,02,12,37,15.70
2013,08,02,12,38,15.80
2013,08,02,12,39,15.80
2013,08,02,12,40,15.80
2013,08,02,12,41,15.90
2013,08,02,12,42,15.90
2013,08,02,12,43,15.90
2013,08,02,12,44,16.00
2013,08,02,12,45,16.00
2013,08,02,12,46,16.00
2013,08,02,12,47,16.10
2013,08,02,12,48,16.10
2013,08,02,12,49,16.10
2013,08,02,12,50,16.10
2013,08,02,12,51,16.10
2013,08,02,12,52,16.10
2013,08,02,12,53,16.10
2013,08,02,12,54,16.20
2013,08,02,12,55,16.10
2013,08,02,12,56,16.10
2013,08,02,12,57,16.10
2013,08,02,12,58,16.10
2013,08,02,12,59,16.10
2013,08,02,13,00,16.10
2013,08,02,13,01,16.10
2013,08,02,13,02,16.10
2013,08,02,13,03,16.10
2013,08,02,13,04,16.10
2013,08,02,13,05,16.10
2013,08,02,13,06,16.10
2013,08,02,13,07,16.10
2013,08,02,13,08,16.10
2013,08,02,13,09,16.10
2013,08,02,13,10,16.10
2013,08,02,13,11,16.10
2013,08,02,13,12,16.10
2013,08,02,13,13,16.10
2013,08,02,13,14,16.00
2013,08,02,13,15,16.00
2013,08,02,13,16,16.00
2013,08,02,13,17,16.00
2013,08,02,13,18,15.90
2013,08,02,13,19,15.90
2013,08,02,13,20,15.90
2013,08,02,13,21,15.90
2013,08,02,13,22,15.90
2013,08,02,13,23,15.90
2013,08,02,13,24,15.80
2013,08,02,13,25,15.80
2013,08,02,13,26,15.70
2013,08,02,13,27,15.70
2013,08,02,13,28,15.70
2013,08,02,13,29,15.70
2013,08,02,13,30,15.70
2013,08,02,13,31,15.60
2013,08,02,13,32,15.60
2013,08,02,13,33,15.60
2013,08,02,13,34,15.60
2013,08,02,13,35,15.60
2013,08,02,13,36,15.60
2013,08,02,13,37,15.50
2013,08,02,13,38,15.50
2013,08,02,13,39,15.50
2013,08,02,13,40,15.40
2013,08,02,13,41,15.40
2013,08,02,13,42,15.40
2013,08,02,13,43,15.30
2013,08,02,13,44,15.30
2013,08,02,13,45,15.30
2013,08,02,13,46,15.20
2013,08,02,13,47,15.20
2013,08,02,13,48,15.20
2013,08,02,13,49,15.20
2013,08,02,13,50,15.20
2013,08,02,13,51,15.20
2013,08,02,13,52,15.20
2013,08,02,13,53,15.20
2013,08,02,13,54,15.10
2013,08,02,13,55,15.10
2013,08,02,13,56,15.10
2013,08,02,13,57,15.10
2013,08,02,13,58,15.10
2013,08,02,13,59,15.00
2013,08,02,14,00,15.00
2013,08,02,14,01,15.00
2013,08,02,14,02,15.00
2013,08,02,14,03,15.00
2013,08,02,14,04,15.00
2013,08,02,14,05,15.00
2013,08,02,14,06,15.00
2013,08,02,14,07,15.00
2013,08,02,14,08,15.00
2013,08,02,14,09,15.00
2013,08,02,14,10,15.00
2013,08,02,14,11,15.00
2013,08,02,14,12,15.00
2013,08,02,14,13,15.00
2013,08,02,14,14,15.00
2013,08,02,14,15,15.00
2013,08,02,14,16,15.00
2013,08,02,14,17,15.00
2013,08,02,14,18,15.00
2013,08,02,14,19,15.00
2013,08,02,14,20,14.90
2013,08,02,14,21,14.90
2013,08,02,14,22,14.90
2013,08,02,14,23,14.80
2013,08,02,14,24,14.80
2013,08,02,14,25,14.80
2013,08,02,14,26,14.90
2013,08,02,14,27,14.90
2013,08,02,14,28,14.80
2013,08,02,14,29,14.90
2013,08,02,14,30,14.90
2013,08,02,14,31,14.90
2013,08,02,14,32,14.90
2013,08,02,14,33,14.90
2013,08,02,14,34,14.90
2013,08,02,14,35,14.90
2013,08,02,14,36,14.90
2013,08,02,14,37,14.90
2013,08,02,14,38,15.00
2013,08,02,14,39,15.00
2013,08,02,14,40,15.00
2013,08,02,14,41,15.00
2013,08,02,14,42,15.00
2013,08,02,14,43,15.00
2013,08,02,14,44,15.00
2013,08,02,14,45,15.00
2013,08,02,14,46,15.00
2013,08,02,14,47,15.00
2013,08,02,14,48,15.00
2013,08,02,14,49,15.00
2013,08,02,14,50,15.00
2013,08,02,14,51,15.00
2013,08,02,14,52,15.00
2013,08,02,14,53,15.00
2013,08,02,14,54,15.00
2013,08,02,14,55,15.00
2013,08,02,14,56,15.00
2013,08,02,14,57,15.00
2013,08,02,14,58,15.00
2013,08,02,14,59,15.00
2013,08,02,15,00,15.00
2013,08,02,15,01,15.00
2013,08,02,15,02,15.00
2013,08,02,15,03,15.00
2013,08,02,15,04,15.00
2013,08,02,15,05,15.00
2013,08,02,15,06,15.00
2013,08,02,15,07,15.00
2013,08,02,15,08,15.00
2013,08,02,15,09,15.00
2013,08,02,15,10,15.00
2013,08,02,15,11,15.00
2013,08,02,15,12,15.00
2013,08,02,15,13,15.00
2013,08,02,15,14,15.00
2013,08,02,15,15,15.00
2013,08,02,15,16,15.00
2013,08,02,15,17,15.00
2013,08,02,15,18,15.00
2013,08,02,15,19,15.00
2013,08,02,15,20,15.00
2013,08,02,15,21,15.00
2013,08,02,15,22,15.00
2013,08,02,15,23,15.00
2013,08,02,15,24,15.00
2013,08,02,15,25,15.00
2013,08,02,15,26,15.00
2013,08,02,15,27,15.00
2013,08,02,15,28,15.00
2013,08,02,15,29,15.00
2013,08,02,15,30,15.00
2013,08,02,15,31,15.00
2013,08,02,15,32,15.00
2013,08,02,15,33,15.00
2013,08,02,15,34,15.00
2013,08,02,15,35,15.00
2013,08,02,15,36,15.00
2013,08,02,15,37,15.00
2013,08,02,15,38,15.00
2013,08,02,15,39,15.00
2013,08,02,15,40,15.00
2013,08,02,15,41,15.00
2013,08,02,15,42,15.00
2013,08,02,15,43,15.00
2013,08,02,15,44,15.00
2013,08,02,15,45,15.00
2013,08,02,15,46,15.00
2013,08,02,15,47,15.00
2013,08,02,15,48,15.00
2013,08,02,15,49,15.00
2013,08,02,15,50,15.00
2013,08,02,15,51,15.00
2013,08,02,15,52,15.00
2013,08,02,15,53,15.00
2013,08,02,15,54,15.00
2013,08,02,15,55,14.90
2013,08,02,15,56,14.90
2013,08,02,15,57,14.90
2013,08,02,15,58,14.90
2013,08,02,15,59,14.90
2013,08,02,16,00,15.00
2013,08,02,16,01,15.00
2013,08,02,16,02,15.00
2013,08,02,16,03,15.00
2013,08,02,16,04,15.00
2013,08,02,16,05,15.00
2013,08,02,16,06,15.00
2013,08,02,16,07,15.00
2013,08,02,16,08,15.00
2013,08,02,16,09,15.00
2013,08,02,16,10,15.00
2013,08,02,16,11,15.00
2013,08,02,16,12,15.00
2013,08,02,16,13,15.00
2013,08,02,16,14,15.00
2013,08,02,16,15,15.00
2013,08,02,16,16,15.00
2013,08,02,16,17,15.00
2013,08,02,16,18,15.10
2013,08,02,16,19,15.10
2013,08,02,16,20,15.10
2013,08,02,16,21,15.10
2013,08,02,16,22,15.20
2013,08,02,16,23,15.20
2013,08,02,16,24,15.10
2013,08,02,16,25,15.10
2013,08,02,16,26,15.10
2013,08,02,16,27,15.20
2013,08,02,16,28,15.20
2013,08,02,16,29,15.20
2013,08,02,16,30,15.30
2013,08,02,16,31,15.30
2013,08,02,16,32,15.30
2013,08,02,16,33,15.30
2013,08,02,16,34,15.40
2013,08,02,16,35,15.40
2013,08,02,16,36,15.40
2013,08,02,16,37,15.40
2013,08,02,16,38,15.40
2013,08,02,16,39,15.40
2013,08,02,16,40,15.40
2013,08,02,16,41,15.50
2013,08,02,16,42,15.50
2013,08,02,16,43,15.50
2013,08,02,16,44,15.60
2013,08,02,16,45,15.60
2013,08,02,16,46,15.60
2013,08,02,16,47,15.70
2013,08,02,16,48,15.70
2013,08,02,16,49,15.70
2013,08,02,16,50,15.70
2013,08,02,16,51,15.70
2013,08,02,16,52,15.70
2013,08,02,16,53,15.70
2013,08,02,16,54,15.70
2013,08,02,16,55,15.70
2013,08,02,16,56,15.70
2013,08,02,16,57,15.60
2013,08,02,16,58,15.60
2013,08,02,16,59,15.60
2013,08,02,17,00,15.60
2013,08,02,17,01,15.60
2013,08,02,17,02,15.60
2013,08,02,17,03,15.60
2013,08,02,17,04,15.50
2013,08,02,17,05,15.50
2013,08,02,17,06,15.50
2013,08,02,17,07,15.50
2013,08,02,17,08,15.50
2013,08,02,17,09,15.50
2013,08,02,17,10,15.40
2013,08,02,17,11,15.40
2013,08,02,17,12,15.40
2013,08,02,17,13,15.40
2013,08,02,17,14,15.40
2013,08,02,17,15,15.40
2013,08,02,17,16,15.40
2013,08,02,17,17,15.40
2013,08,02,17,18,15.40
2013,08,02,17,19,15.40